TimeMDT,TemperatureF,Dew PointF,Humidity,Sea Level PressureIn,VisibilityMPH,Wind Direction,Wind SpeedMPH,Gust SpeedMPH,PrecipitationIn,Events,Conditions,WindDirDegrees,DateUTC
12:53 AM,52.0,37.9,59,30.00,10.0,WSW,8.1,-,N/A,,Clear,240,2012-10-30 06:53:00
1:53 AM,48.0,37.0,66,30.03,10.0,WSW,5.8,-,N/A,,Clear,240,2012-10-30 07:53:00
2:53 AM,46.0,37.9,73,30.03,10.0,SW,6.9,-,N/A,,Partly Cloudy,230,2012-10-30 08:53:00
3:53 AM,48.0,37.0,66,30.02,10.0,SW,4.6,-,N/A,,Partly Cloudy,220,2012-10-30 09:53:00
4:53 AM,44.1,37.0,76,30.03,10.0,SSW,5.8,-,N/A,,Partly Cloudy,200,2012-10-30 10:53:00
5:53 AM,46.9,37.0,68,30.04,10.0,SW,8.1,-,N/A,,Partly Cloudy,220,2012-10-30 11:53:00
6:53 AM,45.0,35.1,68,30.04,10.0,SSW,10.4,-,N/A,,Partly Cloudy,210,2012-10-30 12:53:00
7:53 AM,45.0,36.0,71,30.05,10.0,SW,9.2,-,N/A,,Partly Cloudy,220,2012-10-30 13:53:00
8:53 AM,44.1,36.0,73,30.06,10.0,SW,10.4,-,N/A,,Mostly Cloudy,220,2012-10-30 14:53:00
9:53 AM,44.1,37.0,76,30.09,10.0,SSW,12.7,-,N/A,,Mostly Cloudy,210,2012-10-30 15:53:00
10:53 AM,45.0,37.9,76,30.09,10.0,SW,10.4,-,N/A,,Mostly Cloudy,220,2012-10-30 16:53:00
11:53 AM,50.0,37.0,61,30.07,10.0,WSW,10.4,-,N/A,,Mostly Cloudy,240,2012-10-30 17:53:00
12:53 PM,55.0,39.0,55,30.03,10.0,SW,8.1,-,N/A,,Scattered Clouds,230,2012-10-30 18:53:00
1:53 PM,59.0,37.9,46,29.99,10.0,SW,4.6,-,N/A,,Partly Cloudy,220,2012-10-30 19:53:00
2:53 PM,63.0,37.0,38,29.96,10.0,SSE,5.8,-,N/A,,Partly Cloudy,150,2012-10-30 20:53:00
3:53 PM,66.0,33.1,29,29.94,10.0,South,8.1,-,N/A,,Partly Cloudy,190,2012-10-30 21:53:00
4:53 PM,62.1,33.1,34,29.96,10.0,WSW,5.8,-,N/A,,Scattered Clouds,240,2012-10-30 22:53:00
5:53 PM,63.0,30.9,30,29.94,10.0,South,3.5,-,N/A,,Scattered Clouds,170,2012-10-30 23:53:00
6:53 PM,61.0,30.0,31,29.95,10.0,SW,5.8,-,N/A,,Scattered Clouds,220,2012-10-31 00:53:00
7:53 PM,55.9,32.0,40,29.96,10.0,SSW,6.9,-,N/A,,Partly Cloudy,200,2012-10-31 01:53:00
8:53 PM,59.0,32.0,36,29.94,10.0,WSW,11.5,-,N/A,,Clear,240,2012-10-31 02:53:00
9:53 PM,57.9,30.9,36,29.95,10.0,WSW,11.5,-,N/A,,Scattered Clouds,240,2012-10-31 03:53:00
10:53 PM,57.0,30.9,37,29.95,10.0,SW,12.7,-,N/A,,Partly Cloudy,230,2012-10-31 04:53:00
11:53 PM,53.1,32.0,45,29.95,10.0,SW,10.4,-,N/A,,Partly Cloudy,220,2012-10-31 05:53:00